{"data":{"norad_id":59662,"epoch":"2026-09-21T14:27:13.341600Z","epoch_age_seconds":76100,"freshness":"FRESH","line1":"1 59662U 24084J   26264.60223775  .00000368  00000+0  22896-4 0  9995","line2":"2 59662  43.0013  15.5433 0001213 275.9693  84.1020 15.27576317134333","mean_motion":15.27576317,"eccentricity":0.0001213,"inclination_deg":43.0013,"raan_deg":15.5433,"arg_perigee_deg":275.9693,"mean_anomaly_deg":84.102,"bstar":2.2896e-5,"rev_number":13433,"period_min":94.266975991616,"perigee_km":482.22786107759,"apogee_km":483.89238749994,"semimajor_km":6861.1971242888,"source":"CELESTRAK","updated_at":"2026-09-22T09:00:49.026420Z"}}